GLD166 SNTI-SWMW

Flight info

Callsign GLD166
Flight time 1h 4m
Altitude 4500
Route 0211S05611W 0235S05657W 0301S05731W
Aircraft C182/M-SDFGIRY/S

Departure

Time 2026-05-04 15:34
Airport Óbidos Municipal Airport (SNTI)

Arrival

Time 2026-05-04 16:39
Airport Maués Airport (SWMW)
Time Latitude Longitude Altitude Speed Heading
2026-05-04 15:27 -1.86926 -55.51606 330 ft 0 kts 176°
2026-05-04 15:32 -1.86862 -55.51590 331 ft 0 kts
2026-05-04 15:33 -1.86805 -55.51502 331 ft 37 kts 82°
2026-05-04 15:34 -1.86249 -55.50002 685 ft 100 kts 23°
2026-05-04 15:34 -1.85594 -55.50088 984 ft 104 kts 328°
2026-05-04 15:34 -1.85848 -55.51456 1175 ft 130 kts 206°
2026-05-04 15:35 -1.87084 -55.52821 1369 ft 145 kts 243°
2026-05-04 15:35 -1.87569 -55.53717 1472 ft 152 kts 242°
2026-05-04 15:35 -1.88084 -55.54668 1584 ft 158 kts 244°
2026-05-04 15:36 -1.88888 -55.56721 1793 ft 159 kts 250°
2026-05-04 15:36 -1.89272 -55.57752 1949 ft 158 kts 250°
2026-05-04 15:36 -1.89650 -55.58777 2098 ft 157 kts 250°
2026-05-04 15:37 -1.90022 -55.59800 2242 ft 155 kts 250°
2026-05-04 15:37 -1.90385 -55.60810 2387 ft 154 kts 251°
2026-05-04 15:37 -1.90747 -55.61811 2531 ft 153 kts 250°
2026-05-04 15:37 -1.91106 -55.62811 2674 ft 152 kts 250°
2026-05-04 15:38 -1.91462 -55.63807 2821 ft 152 kts 250°
2026-05-04 15:38 -1.91814 -55.64808 2965 ft 153 kts 251°
2026-05-04 15:38 -1.92173 -55.65805 3114 ft 152 kts 250°
2026-05-04 15:38 -1.92532 -55.66791 3262 ft 153 kts 250°
2026-05-04 15:39 -1.92888 -55.67791 3398 ft 153 kts 250°
2026-05-04 15:39 -1.93245 -55.68792 3543 ft 153 kts 250°
2026-05-04 15:39 -1.93960 -55.70797 3833 ft 152 kts 250°
2026-05-04 15:40 -1.94315 -55.71793 3977 ft 152 kts 250°
2026-05-04 15:40 -1.94664 -55.72790 4123 ft 151 kts 250°
2026-05-04 15:40 -1.95017 -55.73782 4265 ft 151 kts 250°
2026-05-04 15:40 -1.95365 -55.74775 4375 ft 154 kts 250°
2026-05-04 15:41 -1.95725 -55.75800 4450 ft 157 kts 250°
2026-05-04 15:41 -1.96090 -55.76845 4474 ft 162 kts 250°
2026-05-04 15:41 -1.96469 -55.77920 4481 ft 166 kts 250°
2026-05-04 15:41 -1.96855 -55.79010 4486 ft 167 kts 250°
2026-05-04 15:42 -1.97245 -55.80114 4491 ft 169 kts 250°
2026-05-04 15:42 -1.97637 -55.81222 4488 ft 169 kts 250°
2026-05-04 15:42 -1.98030 -55.82331 4490 ft 169 kts 250°
2026-05-04 15:42 -1.98416 -55.83425 4492 ft 169 kts 250°
2026-05-04 15:43 -1.98808 -55.84536 4493 ft 169 kts 250°
2026-05-04 15:43 -1.99204 -55.85647 4494 ft 169 kts 250°
2026-05-04 15:43 -1.99600 -55.86757 4493 ft 169 kts 250°
2026-05-04 15:43 -1.99995 -55.87864 4493 ft 169 kts 250°
2026-05-04 15:44 -2.00390 -55.88972 4492 ft 169 kts 250°
2026-05-04 15:44 -2.00783 -55.90077 4493 ft 169 kts 250°
2026-05-04 15:44 -2.01043 -55.90808 4494 ft 169 kts 250°
2026-05-04 15:44 -2.01575 -55.92286 4495 ft 169 kts 249°
2026-05-04 15:45 -2.01836 -55.93019 4495 ft 169 kts 250°
2026-05-04 15:45 -2.02232 -55.94126 4494 ft 169 kts 250°
2026-05-04 15:45 -2.02628 -55.95233 4494 ft 169 kts 250°
2026-05-04 15:45 -2.03025 -55.96340 4494 ft 169 kts 250°
2026-05-04 15:46 -2.03425 -55.97446 4494 ft 169 kts 250°
2026-05-04 15:46 -2.03825 -55.98552 4494 ft 169 kts 249°
2026-05-04 15:46 -2.04224 -55.99661 4493 ft 169 kts 250°
2026-05-04 15:46 -2.04620 -56.00751 4495 ft 169 kts 249°
2026-05-04 15:47 -2.05020 -56.01855 4492 ft 169 kts 250°
2026-05-04 15:47 -2.05425 -56.02963 4493 ft 170 kts 250°
2026-05-04 15:47 -2.05834 -56.04071 4493 ft 170 kts 250°
2026-05-04 15:47 -2.06242 -56.05182 4493 ft 170 kts 249°
2026-05-04 15:48 -2.06649 -56.06300 4493 ft 170 kts 250°
2026-05-04 15:48 -2.07055 -56.07409 4495 ft 170 kts 249°
2026-05-04 15:48 -2.07861 -56.09613 4492 ft 168 kts 249°
2026-05-04 15:49 -2.08264 -56.10714 4493 ft 168 kts 249°
2026-05-04 15:49 -2.08668 -56.11811 4492 ft 168 kts 250°
2026-05-04 15:49 -2.09073 -56.12907 4495 ft 168 kts 249°
2026-05-04 15:49 -2.09475 -56.13991 4495 ft 168 kts 249°
2026-05-04 15:50 -2.09885 -56.15091 4494 ft 169 kts 249°
2026-05-04 15:50 -2.10295 -56.16191 4494 ft 169 kts 249°
2026-05-04 15:50 -2.10703 -56.17292 4492 ft 169 kts 249°
2026-05-04 15:50 -2.11245 -56.18319 4479 ft 168 kts 232°
2026-05-04 15:51 -2.11961 -56.19240 4480 ft 168 kts 231°
2026-05-04 15:51 -2.12673 -56.20165 4481 ft 168 kts 231°
2026-05-04 15:51 -2.13385 -56.21088 4481 ft 167 kts 231°
2026-05-04 15:51 -2.14095 -56.22008 4485 ft 167 kts 231°
2026-05-04 15:52 -2.14807 -56.22932 4482 ft 168 kts 231°
2026-05-04 15:52 -2.15524 -56.23858 4479 ft 168 kts 231°
2026-05-04 15:52 -2.16241 -56.24781 4481 ft 168 kts 231°
2026-05-04 15:52 -2.16960 -56.25707 4482 ft 169 kts 231°
2026-05-04 15:53 -2.17680 -56.26632 4482 ft 168 kts 231°
2026-05-04 15:53 -2.18397 -56.27553 4478 ft 168 kts 231°
2026-05-04 15:53 -2.19116 -56.28472 4483 ft 168 kts 231°
2026-05-04 15:53 -2.19821 -56.29396 4482 ft 167 kts 234°
2026-05-04 15:54 -2.20443 -56.30363 4481 ft 167 kts 237°
2026-05-04 15:54 -2.21067 -56.31348 4481 ft 167 kts 237°
2026-05-04 15:54 -2.21689 -56.32333 4479 ft 167 kts 237°
2026-05-04 15:54 -2.22311 -56.33317 4483 ft 167 kts 237°
2026-05-04 15:55 -2.22935 -56.34304 4483 ft 168 kts 237°
2026-05-04 15:55 -2.23558 -56.35288 4482 ft 167 kts 237°
2026-05-04 15:55 -2.24181 -56.36271 4483 ft 168 kts 236°
2026-05-04 15:55 -2.24807 -56.37261 4485 ft 169 kts 237°
2026-05-04 15:56 -2.25438 -56.38249 4482 ft 168 kts 237°
2026-05-04 15:56 -2.26066 -56.39233 4480 ft 168 kts 237°
2026-05-04 15:56 -2.26691 -56.40214 4479 ft 167 kts 237°
2026-05-04 15:56 -2.27316 -56.41197 4480 ft 168 kts 237°
2026-05-04 15:57 -2.27935 -56.42169 4485 ft 168 kts 237°
2026-05-04 15:57 -2.28565 -56.43151 4485 ft 168 kts 236°
2026-05-04 15:57 -2.29196 -56.44137 4481 ft 168 kts 237°
2026-05-04 15:57 -2.29825 -56.45119 4480 ft 167 kts 236°
2026-05-04 15:58 -2.30449 -56.46097 4482 ft 167 kts 237°
2026-05-04 15:58 -2.31075 -56.47075 4482 ft 167 kts 236°
2026-05-04 15:58 -2.31703 -56.48056 4478 ft 167 kts 236°
2026-05-04 15:58 -2.32331 -56.49034 4478 ft 167 kts 236°
2026-05-04 15:59 -2.32956 -56.50012 4478 ft 167 kts 236°
2026-05-04 15:59 -2.33580 -56.50993 4481 ft 167 kts 236°
2026-05-04 15:59 -2.34209 -56.51973 4483 ft 168 kts 236°
2026-05-04 15:59 -2.34835 -56.52942 4483 ft 168 kts 236°
2026-05-04 16:00 -2.35468 -56.53924 4484 ft 168 kts 236°
2026-05-04 16:00 -2.36102 -56.54903 4480 ft 167 kts 236°
2026-05-04 16:00 -2.36730 -56.55881 4483 ft 167 kts 236°
2026-05-04 16:00 -2.37359 -56.56858 4483 ft 167 kts 236°
2026-05-04 16:01 -2.37991 -56.57838 4484 ft 167 kts 236°
2026-05-04 16:01 -2.38622 -56.58815 4479 ft 167 kts 236°
2026-05-04 16:01 -2.39249 -56.59788 4482 ft 166 kts 236°
2026-05-04 16:01 -2.39874 -56.60762 4483 ft 166 kts 236°
2026-05-04 16:02 -2.40502 -56.61736 4480 ft 167 kts 236°
2026-05-04 16:02 -2.41126 -56.62700 4479 ft 167 kts 236°
2026-05-04 16:02 -2.42391 -56.64651 4481 ft 167 kts 236°
2026-05-04 16:03 -2.43027 -56.65629 4485 ft 168 kts 236°
2026-05-04 16:03 -2.43663 -56.66609 4484 ft 168 kts 236°
2026-05-04 16:03 -2.44272 -56.67605 4481 ft 168 kts 239°
2026-05-04 16:03 -2.44833 -56.68609 4478 ft 167 kts 240°
2026-05-04 16:04 -2.45400 -56.69628 4473 ft 167 kts 240°
2026-05-04 16:04 -2.46529 -56.71659 4473 ft 167 kts 240°
2026-05-04 16:04 -2.47096 -56.72673 4473 ft 167 kts 240°
2026-05-04 16:05 -2.47661 -56.73686 4475 ft 166 kts 240°
2026-05-04 16:05 -2.48225 -56.74698 4474 ft 167 kts 240°
2026-05-04 16:05 -2.49361 -56.76732 4478 ft 168 kts 240°
2026-05-04 16:06 -2.49932 -56.77751 4478 ft 168 kts 240°
2026-05-04 16:06 -2.51448 -56.80462 4479 ft 168 kts 239°
2026-05-04 16:07 -2.52202 -56.81815 4481 ft 168 kts 239°
2026-05-04 16:07 -2.53908 -56.84866 4478 ft 167 kts 239°
2026-05-04 16:08 -2.54478 -56.85882 4476 ft 167 kts 239°
2026-05-04 16:08 -2.56196 -56.88928 4475 ft 168 kts 239°
2026-05-04 16:09 -2.57339 -56.90965 4478 ft 168 kts 239°
2026-05-04 16:09 -2.58492 -56.93008 4472 ft 169 kts 239°
2026-05-04 16:10 -2.59640 -56.95044 4473 ft 169 kts 239°
2026-05-04 16:11 -2.61381 -56.98113 4473 ft 169 kts 239°
2026-05-04 16:11 -2.61961 -56.99133 4472 ft 168 kts 239°
2026-05-04 16:12 -2.63699 -57.02169 4475 ft 168 kts 239°
2026-05-04 16:12 -2.65443 -57.05214 4472 ft 169 kts 239°
2026-05-04 16:13 -2.66619 -57.07247 4474 ft 169 kts 239°
2026-05-04 16:13 -2.67783 -57.09264 4471 ft 168 kts 239°
2026-05-04 16:14 -2.68955 -57.11292 4477 ft 169 kts 239°
2026-05-04 16:14 -2.70139 -57.13342 4475 ft 170 kts 239°
2026-05-04 16:15 -2.71959 -57.16370 4471 ft 169 kts 233°
2026-05-04 16:16 -2.73341 -57.18275 4474 ft 169 kts 232°
2026-05-04 16:16 -2.75412 -57.21145 4475 ft 170 kts 232°
2026-05-04 16:17 -2.76793 -57.23047 4474 ft 168 kts 232°
2026-05-04 16:18 -2.78855 -57.25883 4469 ft 168 kts 232°
2026-05-04 16:18 -2.79543 -57.26832 4476 ft 168 kts 232°
2026-05-04 16:19 -2.81607 -57.29666 4472 ft 169 kts 232°
2026-05-04 16:19 -2.82995 -57.31568 4472 ft 169 kts 232°
2026-05-04 16:20 -2.85070 -57.34414 4476 ft 169 kts 232°
2026-05-04 16:20 -2.86455 -57.36317 4476 ft 169 kts 232°
2026-05-04 16:21 -2.88529 -57.39169 4474 ft 168 kts 232°
2026-05-04 16:22 -2.89902 -57.41053 4469 ft 169 kts 232°
2026-05-04 16:22 -2.91982 -57.43904 4475 ft 169 kts 232°
2026-05-04 16:23 -2.94066 -57.46755 4478 ft 169 kts 232°
2026-05-04 16:24 -2.96838 -57.50545 4478 ft 169 kts 232°
2026-05-04 16:25 -2.98236 -57.52433 4473 ft 168 kts 229°
2026-05-04 16:26 -3.01879 -57.55333 4466 ft 168 kts 215°
2026-05-04 16:26 -3.04659 -57.57455 4466 ft 167 kts 215°
2026-05-04 16:27 -3.06503 -57.58866 4465 ft 167 kts 214°
2026-05-04 16:28 -3.09255 -57.60985 4466 ft 168 kts 214°
2026-05-04 16:28 -3.12042 -57.63113 4467 ft 168 kts 214°
2026-05-04 16:29 -3.15751 -57.65958 4471 ft 168 kts 214°
2026-05-04 16:30 -3.18544 -57.68083 4482 ft 171 kts 217°
2026-05-04 16:31 -3.20559 -57.69312 4237 ft 169 kts 209°
2026-05-04 16:31 -3.23658 -57.71005 3865 ft 169 kts 209°
2026-05-04 16:32 -3.26063 -57.72311 3318 ft 123 kts 209°
2026-05-04 16:33 -3.27671 -57.73177 2875 ft 148 kts 209°
2026-05-04 16:33 -3.29830 -57.74344 2298 ft 153 kts 209°
2026-05-04 16:34 -3.31452 -57.75032 1941 ft 152 kts 186°
2026-05-04 16:34 -3.32494 -57.75076 1933 ft 148 kts 184°
2026-05-04 16:35 -3.35580 -57.74997 1771 ft 152 kts 174°
2026-05-04 16:35 -3.38721 -57.74674 1643 ft 148 kts 175°
2026-05-04 16:36 -3.39739 -57.74566 1640 ft 147 kts 174°
2026-05-04 16:36 -3.41253 -57.73858 1297 ft 111 kts 101°
2026-05-04 16:37 -3.40570 -57.72798 849 ft 88 kts 11°
2026-05-04 16:37 -3.39980 -57.72762 660 ft 87 kts
2026-05-04 16:37 -3.38896 -57.72581 413 ft 72 kts 10°
2026-05-04 16:38 -3.37813 -57.72408 89 ft 87 kts 357°
2026-05-04 16:39 -3.36799 -57.72498 62 ft 0 kts 30°
2026-05-04 16:39 -3.36787 -57.72491 61 ft 0 kts 29°